Year,Month,Day,Hour,Minute,Value (Times are PST for temperature in C)
2015,04,16,00,00,7.30
2015,04,16,00,01,7.20
2015,04,16,00,02,7.20
2015,04,16,00,03,7.20
2015,04,16,00,04,7.20
2015,04,16,00,05,7.20
2015,04,16,00,06,7.20
2015,04,16,00,07,7.20
2015,04,16,00,08,7.20
2015,04,16,00,09,7.20
2015,04,16,00,10,7.20
2015,04,16,00,11,7.20
2015,04,16,00,12,7.20
2015,04,16,00,13,7.20
2015,04,16,00,14,7.20
2015,04,16,00,15,7.20
2015,04,16,00,16,7.20
2015,04,16,00,17,7.20
2015,04,16,00,18,7.20
2015,04,16,00,19,7.20
2015,04,16,00,20,7.20
2015,04,16,00,21,7.20
2015,04,16,00,22,7.20
2015,04,16,00,23,7.10
2015,04,16,00,24,7.10
2015,04,16,00,25,7.10
2015,04,16,00,26,7.10
2015,04,16,00,27,7.10
2015,04,16,00,28,7.10
2015,04,16,00,29,7.10
2015,04,16,00,30,7.10
2015,04,16,00,31,7.10
2015,04,16,00,32,7.10
2015,04,16,00,33,7.10
2015,04,16,00,34,7.10
2015,04,16,00,35,7.10
2015,04,16,00,36,7.10
2015,04,16,00,37,7.10
2015,04,16,00,38,7.10
2015,04,16,00,39,7.10
2015,04,16,00,40,7.10
2015,04,16,00,41,7.10
2015,04,16,00,42,7.10
2015,04,16,00,43,7.10
2015,04,16,00,44,7.10
2015,04,16,00,45,7.10
2015,04,16,00,46,7.10
2015,04,16,00,47,7.10
2015,04,16,00,48,7.10
2015,04,16,00,49,7.10
2015,04,16,00,50,7.10
2015,04,16,00,51,7.10
2015,04,16,00,52,7.10
2015,04,16,00,53,7.20
2015,04,16,00,54,7.20
2015,04,16,00,55,7.20
2015,04,16,00,56,7.20
2015,04,16,00,57,7.30
2015,04,16,00,58,7.30
2015,04,16,00,59,7.30
2015,04,16,01,00,7.30
2015,04,16,01,01,7.40
2015,04,16,01,02,7.40
2015,04,16,01,03,7.40
2015,04,16,01,04,7.40
2015,04,16,01,05,7.40
2015,04,16,01,06,7.50
2015,04,16,01,07,7.50
2015,04,16,01,08,7.50
2015,04,16,01,09,7.60
2015,04,16,01,10,7.50
2015,04,16,01,11,7.50
2015,04,16,01,12,7.50
2015,04,16,01,13,7.50
2015,04,16,01,14,7.50
2015,04,16,01,15,7.50
2015,04,16,01,16,7.50
2015,04,16,01,17,7.50
2015,04,16,01,18,7.50
2015,04,16,01,19,7.50
2015,04,16,01,20,7.50
2015,04,16,01,21,7.60
2015,04,16,01,22,7.60
2015,04,16,01,23,7.60
2015,04,16,01,24,7.70
2015,04,16,01,25,7.70
2015,04,16,01,26,7.70
2015,04,16,01,27,7.70
2015,04,16,01,28,7.70
2015,04,16,01,29,7.80
2015,04,16,01,30,7.80
2015,04,16,01,31,7.80
2015,04,16,01,32,7.80
2015,04,16,01,33,7.80
2015,04,16,01,34,7.80
2015,04,16,01,35,7.90
2015,04,16,01,36,7.90
2015,04,16,01,37,7.90
2015,04,16,01,38,7.90
2015,04,16,01,39,7.90
2015,04,16,01,40,7.90
2015,04,16,01,41,7.90
2015,04,16,01,42,7.90
2015,04,16,01,43,7.90
2015,04,16,01,44,7.90
2015,04,16,01,45,8.00
2015,04,16,01,46,8.00
2015,04,16,01,47,8.00
2015,04,16,01,48,8.00
2015,04,16,01,49,8.00
2015,04,16,01,50,8.00
2015,04,16,01,51,8.00
2015,04,16,01,52,8.10
2015,04,16,01,53,8.10
2015,04,16,01,54,8.10
2015,04,16,01,55,8.10
2015,04,16,01,56,8.10
2015,04,16,01,57,8.10
2015,04,16,01,58,8.10
2015,04,16,01,59,8.10
2015,04,16,02,00,8.10
2015,04,16,02,01,8.10
2015,04,16,02,02,8.10
2015,04,16,02,03,8.10
2015,04,16,02,04,8.10
2015,04,16,02,05,8.10
2015,04,16,02,06,8.10
2015,04,16,02,07,8.10
2015,04,16,02,08,8.10
2015,04,16,02,09,8.10
2015,04,16,02,10,8.10
2015,04,16,02,11,8.10
2015,04,16,02,12,8.10
2015,04,16,02,13,8.20
2015,04,16,02,14,8.20
2015,04,16,02,15,8.20
2015,04,16,02,16,8.20
2015,04,16,02,17,8.20
2015,04,16,02,18,8.20
2015,04,16,02,19,8.20
2015,04,16,02,20,8.20
2015,04,16,02,21,8.20
2015,04,16,02,22,8.20
2015,04,16,02,23,8.20
2015,04,16,02,24,8.20
2015,04,16,02,25,8.20
2015,04,16,02,26,8.20
2015,04,16,02,27,8.30
2015,04,16,02,28,8.30
2015,04,16,02,29,8.20
2015,04,16,02,30,8.20
2015,04,16,02,31,8.30
2015,04,16,02,32,8.20
2015,04,16,02,33,8.30
2015,04,16,02,34,8.20
2015,04,16,02,35,8.20
2015,04,16,02,36,8.20
2015,04,16,02,37,8.20
2015,04,16,02,38,8.20
2015,04,16,02,39,8.20
2015,04,16,02,40,8.20
2015,04,16,02,41,8.20
2015,04,16,02,42,8.20
2015,04,16,02,43,8.20
2015,04,16,02,44,8.20
2015,04,16,02,45,8.20
2015,04,16,02,46,8.20
2015,04,16,02,47,8.20
2015,04,16,02,48,8.20
2015,04,16,02,49,8.10
2015,04,16,02,50,8.10
2015,04,16,02,51,8.10
2015,04,16,02,52,8.10
2015,04,16,02,53,8.10
2015,04,16,02,54,8.10
2015,04,16,02,55,8.10
2015,04,16,02,56,8.10
2015,04,16,02,57,8.10
2015,04,16,02,58,8.10
2015,04,16,02,59,8.10
2015,04,16,03,00,8.00
2015,04,16,03,01,8.00
2015,04,16,03,02,8.00
2015,04,16,03,06,8.00
2015,04,16,03,07,7.90
2015,04,16,03,08,7.90
2015,04,16,03,09,7.90
2015,04,16,03,10,7.90
2015,04,16,03,11,7.90
2015,04,16,03,12,7.90
2015,04,16,03,13,7.90
2015,04,16,03,14,7.90
2015,04,16,03,15,7.90
2015,04,16,03,16,7.90
2015,04,16,03,17,7.90
2015,04,16,03,18,7.90
2015,04,16,03,19,7.90
2015,04,16,03,20,7.80
2015,04,16,03,21,7.80
2015,04,16,03,22,7.80
2015,04,16,03,23,7.80
2015,04,16,03,24,7.80
2015,04,16,03,25,7.80
2015,04,16,03,26,7.80
2015,04,16,03,27,7.80
2015,04,16,03,28,7.80
2015,04,16,03,29,7.80
2015,04,16,03,30,7.70
2015,04,16,03,31,7.70
2015,04,16,03,32,7.70
2015,04,16,03,33,7.70
2015,04,16,03,34,7.60
2015,04,16,03,35,7.60
2015,04,16,03,36,7.60
2015,04,16,03,37,7.60
2015,04,16,03,38,7.50
2015,04,16,03,39,7.50
2015,04,16,03,40,7.40
2015,04,16,03,41,7.40
2015,04,16,03,42,7.40
2015,04,16,03,43,7.40
2015,04,16,03,44,7.30
2015,04,16,03,45,7.30
2015,04,16,03,46,7.30
2015,04,16,03,47,7.30
2015,04,16,03,48,7.30
2015,04,16,03,49,7.30
2015,04,16,03,50,7.30
2015,04,16,03,51,7.30
2015,04,16,03,52,7.30
2015,04,16,03,53,7.30
2015,04,16,03,54,7.30
2015,04,16,03,55,7.30
2015,04,16,03,56,7.30
2015,04,16,03,57,7.30
2015,04,16,03,58,7.30
2015,04,16,03,59,7.30
2015,04,16,04,00,7.30
2015,04,16,04,01,7.30
2015,04,16,04,02,7.20
2015,04,16,04,03,7.20
2015,04,16,04,04,7.30
2015,04,16,04,05,7.30
2015,04,16,04,06,7.30
2015,04,16,04,07,7.40
2015,04,16,04,08,7.40
2015,04,16,04,09,7.50
2015,04,16,04,10,7.50
2015,04,16,04,11,7.60
2015,04,16,04,12,7.60
2015,04,16,04,13,7.60
2015,04,16,04,14,7.60
2015,04,16,04,15,7.60
2015,04,16,04,16,7.60
2015,04,16,04,17,7.60
2015,04,16,04,18,7.60
2015,04,16,04,19,7.60
2015,04,16,04,20,7.60
2015,04,16,04,21,7.60
2015,04,16,04,22,7.60
2015,04,16,04,23,7.60
2015,04,16,04,24,7.60
2015,04,16,04,25,7.60
2015,04,16,04,26,7.60
2015,04,16,04,27,7.60
2015,04,16,04,28,7.60
2015,04,16,04,29,7.60
2015,04,16,04,30,7.60
2015,04,16,04,31,7.60
2015,04,16,04,32,7.60
2015,04,16,04,33,7.60
2015,04,16,04,34,7.50
2015,04,16,04,35,7.60
2015,04,16,04,36,7.50
2015,04,16,04,37,7.50
2015,04,16,04,38,7.50
2015,04,16,04,39,7.50
2015,04,16,04,40,7.50
2015,04,16,04,41,7.40
2015,04,16,04,42,7.40
2015,04,16,04,43,7.40
2015,04,16,04,44,7.40
2015,04,16,04,45,7.40
2015,04,16,04,46,7.40
2015,04,16,04,47,7.40
2015,04,16,04,48,7.40
2015,04,16,04,49,7.40
2015,04,16,04,50,7.40
2015,04,16,04,51,7.40
2015,04,16,04,52,7.40
2015,04,16,04,53,7.50
2015,04,16,04,54,7.50
2015,04,16,04,55,7.50
2015,04,16,04,56,7.50
2015,04,16,04,57,7.50
2015,04,16,04,58,7.50
2015,04,16,04,59,7.50
2015,04,16,05,00,7.50
2015,04,16,05,01,7.50
2015,04,16,05,02,7.60
2015,04,16,05,03,7.60
2015,04,16,05,04,7.60
2015,04,16,05,05,7.60
2015,04,16,05,06,7.60
2015,04,16,05,07,7.50
2015,04,16,05,08,7.50
2015,04,16,05,09,7.50
2015,04,16,05,10,7.50
2015,04,16,05,11,7.50
2015,04,16,05,12,7.50
2015,04,16,05,13,7.40
2015,04,16,05,14,7.40
2015,04,16,05,15,7.40
2015,04,16,05,16,7.40
2015,04,16,05,17,7.40
2015,04,16,05,18,7.40
2015,04,16,05,19,7.40
2015,04,16,05,20,7.40
2015,04,16,05,21,7.40
2015,04,16,05,22,7.40
2015,04,16,05,23,7.30
2015,04,16,05,24,7.40
2015,04,16,05,25,7.40
2015,04,16,05,26,7.40
2015,04,16,05,27,7.40
2015,04,16,05,28,7.40
2015,04,16,05,29,7.40
2015,04,16,05,30,7.40
2015,04,16,05,31,7.40
2015,04,16,05,32,7.40
2015,04,16,05,33,7.30
2015,04,16,05,34,7.30
2015,04,16,05,35,7.30
2015,04,16,05,36,7.30
2015,04,16,05,37,7.30
2015,04,16,05,38,7.30
2015,04,16,05,39,7.30
2015,04,16,05,40,7.30
2015,04,16,05,41,7.30
2015,04,16,05,42,7.30
2015,04,16,05,43,7.30
2015,04,16,05,44,7.30
2015,04,16,05,45,7.30
2015,04,16,05,46,7.30
2015,04,16,05,47,7.30
2015,04,16,05,48,7.30
2015,04,16,05,49,7.30
2015,04,16,05,50,7.20
2015,04,16,05,51,7.20
2015,04,16,05,52,7.20
2015,04,16,05,53,7.20
2015,04,16,05,54,7.20
2015,04,16,05,55,7.20
2015,04,16,05,56,7.20
2015,04,16,05,57,7.20
2015,04,16,05,58,7.20
2015,04,16,05,59,7.20
2015,04,16,06,00,7.10
2015,04,16,06,01,7.10
2015,04,16,06,02,7.10
2015,04,16,06,03,7.10
2015,04,16,06,04,7.10
2015,04,16,06,05,7.10
2015,04,16,06,06,7.00
2015,04,16,06,07,7.00
2015,04,16,06,08,7.00
2015,04,16,06,09,7.00
2015,04,16,06,10,7.00
2015,04,16,06,11,7.00
2015,04,16,06,12,7.00
2015,04,16,06,13,6.90
2015,04,16,06,14,6.90
2015,04,16,06,15,6.90
2015,04,16,06,16,6.90
2015,04,16,06,17,6.80
2015,04,16,06,18,6.80
2015,04,16,06,19,6.80
2015,04,16,06,20,6.80
2015,04,16,06,21,6.80
2015,04,16,06,22,6.80
2015,04,16,06,23,6.80
2015,04,16,06,24,6.80
2015,04,16,06,25,6.80
2015,04,16,06,26,6.80
2015,04,16,06,27,6.80
2015,04,16,06,28,6.80
2015,04,16,06,29,6.80
2015,04,16,06,30,6.80
2015,04,16,06,31,6.80
2015,04,16,06,32,6.80
2015,04,16,06,33,6.80
2015,04,16,06,34,6.80
2015,04,16,06,35,6.80
2015,04,16,06,36,6.80
2015,04,16,06,37,6.80
2015,04,16,06,38,6.80
2015,04,16,06,39,6.80
2015,04,16,06,40,6.80
2015,04,16,06,41,6.80
2015,04,16,06,42,6.80
2015,04,16,06,43,6.80
2015,04,16,06,44,6.80
2015,04,16,06,45,6.80
2015,04,16,06,46,6.80
2015,04,16,06,47,6.80
2015,04,16,06,48,6.80
2015,04,16,06,49,6.80
2015,04,16,06,50,6.80
2015,04,16,06,51,6.80
2015,04,16,06,52,6.80
2015,04,16,06,53,6.80
2015,04,16,06,54,6.90
2015,04,16,06,55,6.90
2015,04,16,06,56,7.00
2015,04,16,06,57,7.00
2015,04,16,06,58,7.10
2015,04,16,06,59,7.10
2015,04,16,07,00,7.20
2015,04,16,07,01,7.30
2015,04,16,07,02,7.40
2015,04,16,07,03,7.40
2015,04,16,07,04,7.50
2015,04,16,07,05,7.60
2015,04,16,07,06,7.60
2015,04,16,07,07,7.70
2015,04,16,07,08,7.80
2015,04,16,07,09,7.80
2015,04,16,07,10,7.90
2015,04,16,07,11,7.90
2015,04,16,07,12,8.00
2015,04,16,07,13,8.00
2015,04,16,07,14,8.10
2015,04,16,07,15,8.10
2015,04,16,07,16,8.20
2015,04,16,07,17,8.20
2015,04,16,07,18,8.20
2015,04,16,07,19,8.30
2015,04,16,07,20,8.30
2015,04,16,07,21,8.30
2015,04,16,07,22,8.30
2015,04,16,07,23,8.30
2015,04,16,07,24,8.30
2015,04,16,07,25,8.30
2015,04,16,07,26,8.30
2015,04,16,07,27,8.40
2015,04,16,07,28,8.40
2015,04,16,07,29,8.40
2015,04,16,07,30,8.40
2015,04,16,07,31,8.40
2015,04,16,07,32,8.50
2015,04,16,07,33,8.50
2015,04,16,07,34,8.50
2015,04,16,07,35,8.60
2015,04,16,07,36,8.60
2015,04,16,07,37,8.60
2015,04,16,07,38,8.60
2015,04,16,07,39,8.70
2015,04,16,07,40,8.70
2015,04,16,07,41,8.70
2015,04,16,07,42,8.80
2015,04,16,07,43,8.80
2015,04,16,07,44,8.80
2015,04,16,07,45,8.90
2015,04,16,07,46,8.90
2015,04,16,07,47,8.90
2015,04,16,07,48,8.90
2015,04,16,07,49,8.90
2015,04,16,07,50,8.90
2015,04,16,07,51,8.90
2015,04,16,07,52,8.90
2015,04,16,07,53,8.90
2015,04,16,07,54,9.00
2015,04,16,07,55,9.00
2015,04,16,07,56,9.00
2015,04,16,07,57,9.00
2015,04,16,07,58,9.10
2015,04,16,07,59,9.10
2015,04,16,08,00,9.20
2015,04,16,08,01,9.20
2015,04,16,08,02,9.20
2015,04,16,08,03,9.30
2015,04,16,08,04,9.30
2015,04,16,08,05,9.40
2015,04,16,08,06,9.40
2015,04,16,08,07,9.50
2015,04,16,08,08,9.50
2015,04,16,08,09,9.60
2015,04,16,08,10,9.60
2015,04,16,08,11,9.60
2015,04,16,08,12,9.70
2015,04,16,08,13,9.70
2015,04,16,08,14,9.70
2015,04,16,08,15,9.70
2015,04,16,08,16,9.80
2015,04,16,08,17,9.80
2015,04,16,08,18,9.80
2015,04,16,08,19,9.80
2015,04,16,08,20,9.80
2015,04,16,08,21,9.80
2015,04,16,08,22,9.80
2015,04,16,08,23,9.80
2015,04,16,08,24,9.80
2015,04,16,08,25,9.80
2015,04,16,08,26,9.70
2015,04,16,08,27,9.70
2015,04,16,08,28,9.70
2015,04,16,08,29,9.60
2015,04,16,08,30,9.70
2015,04,16,08,31,9.70
2015,04,16,08,32,9.80
2015,04,16,08,33,9.80
2015,04,16,08,34,9.80
2015,04,16,08,35,9.90
2015,04,16,08,36,10.00
2015,04,16,08,37,10.00
2015,04,16,08,38,10.10
2015,04,16,08,39,10.10
2015,04,16,08,40,10.20
2015,04,16,08,41,10.20
2015,04,16,08,42,10.20
2015,04,16,08,43,10.20
2015,04,16,08,44,10.20
2015,04,16,08,45,10.20
2015,04,16,08,46,10.20
2015,04,16,08,47,10.20
2015,04,16,08,48,10.30
2015,04,16,08,49,10.30
2015,04,16,08,50,10.30
2015,04,16,08,51,10.40
2015,04,16,08,52,10.40
2015,04,16,08,53,10.40
2015,04,16,08,54,10.50
2015,04,16,08,55,10.50
2015,04,16,08,56,10.50
2015,04,16,08,57,10.60
2015,04,16,08,58,10.60
2015,04,16,08,59,10.60
2015,04,16,09,00,10.60
2015,04,16,09,01,10.60
2015,04,16,09,02,10.60
2015,04,16,09,03,10.60
2015,04,16,09,04,10.60
2015,04,16,09,05,10.70
2015,04,16,09,06,10.70
2015,04,16,09,07,10.70
2015,04,16,09,08,10.70
2015,04,16,09,09,10.70
2015,04,16,09,10,10.70
2015,04,16,09,11,10.70
2015,04,16,09,12,10.80
2015,04,16,09,13,10.80
2015,04,16,09,14,10.80
2015,04,16,09,15,10.90
2015,04,16,09,16,11.00
2015,04,16,09,17,11.00
2015,04,16,09,18,11.10
2015,04,16,09,19,11.10
2015,04,16,09,20,11.10
2015,04,16,09,21,11.10
2015,04,16,09,22,11.20
2015,04,16,09,23,11.20
2015,04,16,09,24,11.20
2015,04,16,09,25,11.20
2015,04,16,09,26,11.20
2015,04,16,09,27,11.20
2015,04,16,09,28,11.20
2015,04,16,09,29,11.10
2015,04,16,09,30,11.10
2015,04,16,09,31,11.10
2015,04,16,09,32,11.10
2015,04,16,09,33,11.10
2015,04,16,09,34,11.10
2015,04,16,09,35,11.00
2015,04,16,09,36,11.00
2015,04,16,09,37,11.00
2015,04,16,09,38,11.00
2015,04,16,09,39,11.10
2015,04,16,09,40,11.00
2015,04,16,09,41,11.10
2015,04,16,09,42,11.10
2015,04,16,09,43,11.10
2015,04,16,09,44,11.10
2015,04,16,09,45,11.20
2015,04,16,09,46,11.20
2015,04,16,09,47,11.20
2015,04,16,09,48,11.20
2015,04,16,09,49,11.10
2015,04,16,09,50,11.10
2015,04,16,09,51,11.00
2015,04,16,09,52,11.00
2015,04,16,09,53,10.90
2015,04,16,09,54,10.90
2015,04,16,09,55,10.90
2015,04,16,09,56,11.00
2015,04,16,09,57,11.10
2015,04,16,09,58,11.10
2015,04,16,09,59,11.20
2015,04,16,10,00,11.20
2015,04,16,10,01,11.20
2015,04,16,10,02,11.30
2015,04,16,10,03,11.40
2015,04,16,10,04,11.50
2015,04,16,10,05,11.50
2015,04,16,10,06,11.60
2015,04,16,10,07,11.60
2015,04,16,10,08,11.70
2015,04,16,10,09,11.60
2015,04,16,10,10,11.60
2015,04,16,10,11,11.70
2015,04,16,10,12,11.70
2015,04,16,10,13,11.70
2015,04,16,10,14,11.70
2015,04,16,10,15,11.70
2015,04,16,10,16,11.70
2015,04,16,10,17,11.70
2015,04,16,10,18,11.80
2015,04,16,10,19,11.80
2015,04,16,10,20,11.80
2015,04,16,10,21,11.90
2015,04,16,10,22,12.00
2015,04,16,10,23,12.10
2015,04,16,10,24,12.10
2015,04,16,10,25,12.20
2015,04,16,10,26,12.30
2015,04,16,10,27,12.40
2015,04,16,10,28,12.40
2015,04,16,10,29,12.40
2015,04,16,10,30,12.40
2015,04,16,10,31,12.40
2015,04,16,10,32,12.40
2015,04,16,10,33,12.50
2015,04,16,10,34,12.60
2015,04,16,10,35,12.60
2015,04,16,10,36,12.70
2015,04,16,10,37,12.70
2015,04,16,10,38,12.70
2015,04,16,10,39,12.70
2015,04,16,10,40,12.80
2015,04,16,10,41,12.80
2015,04,16,10,42,12.90
2015,04,16,10,43,12.90
2015,04,16,10,44,13.00
2015,04,16,10,45,13.00
2015,04,16,10,46,13.10
2015,04,16,10,47,13.10
2015,04,16,10,48,13.10
2015,04,16,10,49,13.10
2015,04,16,10,50,13.10
2015,04,16,10,51,13.10
2015,04,16,10,52,13.10
2015,04,16,10,53,13.10
2015,04,16,10,54,13.10
2015,04,16,10,55,13.00
2015,04,16,10,56,13.00
2015,04,16,10,57,13.00
2015,04,16,10,58,13.00
2015,04,16,10,59,12.90
2015,04,16,11,00,12.90
2015,04,16,11,01,12.90
2015,04,16,11,02,12.90
2015,04,16,11,03,13.00
2015,04,16,11,04,13.00
2015,04,16,11,05,13.00
2015,04,16,11,06,13.10
2015,04,16,11,07,13.10
2015,04,16,11,08,13.20
2015,04,16,11,09,13.20
2015,04,16,11,10,13.10
2015,04,16,11,11,13.10
2015,04,16,11,12,13.20
2015,04,16,11,13,13.20
2015,04,16,11,14,13.30
2015,04,16,11,15,13.30
2015,04,16,11,16,13.30
2015,04,16,11,17,13.30
2015,04,16,11,18,13.30
2015,04,16,11,19,13.30
2015,04,16,11,20,13.40
2015,04,16,11,21,13.40
2015,04,16,11,22,13.40
2015,04,16,11,23,13.40
2015,04,16,11,24,13.40
2015,04,16,11,25,13.40
2015,04,16,11,26,13.40
2015,04,16,11,27,13.40
2015,04,16,11,28,13.40
2015,04,16,11,29,13.50
2015,04,16,11,30,13.50
2015,04,16,11,31,13.60
2015,04,16,11,32,13.70
2015,04,16,11,33,13.70
2015,04,16,11,34,13.80
2015,04,16,11,35,13.90
2015,04,16,11,36,13.90
2015,04,16,11,37,13.90
2015,04,16,11,38,13.90
2015,04,16,11,39,13.80
2015,04,16,11,40,13.80
2015,04,16,11,41,13.80
2015,04,16,11,42,13.80
2015,04,16,11,43,13.70
2015,04,16,11,44,13.70
2015,04,16,11,45,13.60
2015,04,16,11,46,13.60
2015,04,16,11,47,13.60
2015,04,16,11,48,13.60
2015,04,16,11,49,13.60
2015,04,16,11,50,13.60
2015,04,16,11,51,13.50
2015,04,16,11,52,13.50
2015,04,16,11,53,13.40
2015,04,16,11,54,13.40
2015,04,16,11,55,13.30
2015,04,16,11,56,13.30
2015,04,16,11,57,13.40
2015,04,16,11,58,13.40
2015,04,16,11,59,13.50
2015,04,16,12,00,13.50
2015,04,16,12,01,13.60
2015,04,16,12,02,13.60
2015,04,16,12,03,13.60
2015,04,16,12,04,13.60
2015,04,16,12,05,13.60
2015,04,16,12,06,13.70
2015,04,16,12,07,13.70
2015,04,16,12,08,13.70
2015,04,16,12,09,13.70
2015,04,16,12,10,13.70
2015,04,16,12,11,13.80
2015,04,16,12,12,13.80
2015,04,16,12,13,13.80
2015,04,16,12,14,13.80
2015,04,16,12,15,13.90
2015,04,16,12,16,13.90
2015,04,16,12,17,13.90
2015,04,16,12,18,13.90
2015,04,16,12,19,13.80
2015,04,16,12,20,13.80
2015,04,16,12,21,13.80
2015,04,16,12,22,13.80
2015,04,16,12,23,13.80
2015,04,16,12,24,13.70
2015,04,16,12,25,13.70
2015,04,16,12,26,13.60
2015,04,16,12,27,13.60
2015,04,16,12,28,13.50
2015,04,16,12,29,13.50
2015,04,16,12,30,13.40
2015,04,16,12,31,13.30
2015,04,16,12,32,13.30
2015,04,16,12,33,13.30
2015,04,16,12,34,13.30
2015,04,16,12,35,13.30
2015,04,16,12,36,13.40
2015,04,16,12,37,13.40
2015,04,16,12,38,13.40
2015,04,16,12,39,13.40
2015,04,16,12,40,13.30
2015,04,16,12,41,13.30
2015,04,16,12,42,13.20
2015,04,16,12,43,13.10
2015,04,16,12,44,13.10
2015,04,16,12,45,13.10
2015,04,16,12,46,13.10
2015,04,16,12,47,13.10
2015,04,16,12,48,13.20
2015,04,16,12,49,13.30
2015,04,16,12,50,13.30
2015,04,16,12,51,13.40
2015,04,16,12,52,13.40
2015,04,16,12,53,13.40
2015,04,16,12,54,13.40
2015,04,16,12,55,13.30
2015,04,16,12,56,13.20
2015,04,16,12,57,13.00
2015,04,16,12,58,13.00
2015,04,16,12,59,12.90
2015,04,16,13,00,12.90
2015,04,16,13,01,12.90
2015,04,16,13,02,12.90
2015,04,16,13,03,12.90
2015,04,16,13,04,12.90
2015,04,16,13,05,13.00
2015,04,16,13,06,13.00
2015,04,16,13,07,13.00
2015,04,16,13,08,12.90
2015,04,16,13,09,12.80
2015,04,16,13,10,12.60
2015,04,16,13,11,12.50
2015,04,16,13,12,12.40
2015,04,16,13,13,12.20
2015,04,16,13,14,12.00
2015,04,16,13,15,11.80
2015,04,16,13,16,11.80
2015,04,16,13,17,11.80
2015,04,16,13,18,11.80
2015,04,16,13,19,11.90
2015,04,16,13,20,11.90
2015,04,16,13,21,11.80
2015,04,16,13,22,11.80
2015,04,16,13,23,11.70
2015,04,16,13,24,11.60
2015,04,16,13,25,11.50
2015,04,16,13,26,11.50
2015,04,16,13,27,11.40
2015,04,16,13,28,11.30
2015,04,16,13,29,11.30
2015,04,16,13,30,11.30
2015,04,16,13,31,11.30
2015,04,16,13,32,11.40
2015,04,16,13,33,11.50
2015,04,16,13,34,11.60
2015,04,16,13,35,11.80
2015,04,16,13,36,11.80
2015,04,16,13,37,11.80
2015,04,16,13,38,11.80
2015,04,16,13,39,11.70
2015,04,16,13,40,11.60
2015,04,16,13,41,11.60
2015,04,16,13,42,11.50
2015,04,16,13,43,11.50
2015,04,16,13,44,11.50
2015,04,16,13,45,11.50
2015,04,16,13,46,11.50
2015,04,16,13,47,11.50
2015,04,16,13,48,11.50
2015,04,16,13,49,11.60
2015,04,16,13,50,11.60
2015,04,16,13,51,11.60
2015,04,16,13,52,11.70
2015,04,16,13,53,11.70
2015,04,16,13,54,11.70
2015,04,16,13,55,11.70
2015,04,16,13,56,11.70
2015,04,16,13,57,11.70
2015,04,16,13,58,11.70
2015,04,16,13,59,11.70
2015,04,16,14,00,11.60
2015,04,16,14,01,11.60
2015,04,16,14,02,11.60
2015,04,16,14,03,11.60
2015,04,16,14,04,11.60
2015,04,16,14,05,11.60
2015,04,16,14,06,11.50
2015,04,16,14,07,11.50
2015,04,16,14,08,11.50
2015,04,16,14,09,11.50
2015,04,16,14,10,11.40
2015,04,16,14,11,11.40
2015,04,16,14,12,11.30
2015,04,16,14,13,11.30
2015,04,16,14,14,11.30
2015,04,16,14,15,11.30
2015,04,16,14,16,11.30
2015,04,16,14,17,11.30
2015,04,16,14,18,11.20
2015,04,16,14,19,11.30
2015,04,16,14,20,11.30
2015,04,16,14,21,11.30
2015,04,16,14,22,11.40
2015,04,16,14,23,11.40
2015,04,16,14,24,11.40
2015,04,16,14,25,11.40
2015,04,16,14,26,11.40
2015,04,16,14,27,11.50
2015,04,16,14,28,11.50
2015,04,16,14,29,11.60
2015,04,16,14,30,11.60
2015,04,16,14,31,11.70
2015,04,16,14,32,11.80
2015,04,16,14,33,11.80
2015,04,16,14,34,11.90
2015,04,16,14,35,11.90
2015,04,16,14,36,11.90
2015,04,16,14,37,12.00
2015,04,16,14,38,12.00
2015,04,16,14,39,12.10
2015,04,16,14,40,12.10
2015,04,16,14,41,12.10
2015,04,16,14,42,12.10
2015,04,16,14,43,12.20
2015,04,16,14,44,12.30
2015,04,16,14,45,12.30
2015,04,16,14,46,12.30
2015,04,16,14,47,12.30
2015,04,16,14,48,12.30
2015,04,16,14,49,12.20
2015,04,16,14,50,12.20
2015,04,16,14,51,12.10
2015,04,16,14,52,12.10
2015,04,16,14,53,12.10
2015,04,16,14,54,12.10
2015,04,16,14,55,12.10
2015,04,16,14,56,12.10
2015,04,16,14,57,12.10
2015,04,16,14,58,12.10
2015,04,16,14,59,12.20
2015,04,16,15,00,12.30
2015,04,16,15,01,12.40
2015,04,16,15,02,12.50
2015,04,16,15,03,12.60
2015,04,16,15,04,12.70
2015,04,16,15,05,12.80
2015,04,16,15,06,12.90
2015,04,16,15,07,13.10
2015,04,16,15,08,13.20
2015,04,16,15,09,13.30
2015,04,16,15,10,13.30
2015,04,16,15,11,13.40
2015,04,16,15,12,13.50
2015,04,16,15,13,13.60
2015,04,16,15,14,13.70
2015,04,16,15,15,13.80
2015,04,16,15,16,13.80
2015,04,16,15,17,13.80
2015,04,16,15,18,13.80
2015,04,16,15,19,13.80
2015,04,16,15,20,13.70
2015,04,16,15,21,13.70
2015,04,16,15,22,13.70
2015,04,16,15,23,13.80
2015,04,16,15,24,13.80
2015,04,16,15,25,13.80
2015,04,16,15,26,13.70
2015,04,16,15,27,13.70
2015,04,16,15,28,13.70
2015,04,16,15,29,13.70
2015,04,16,15,30,13.70
2015,04,16,15,31,13.60
2015,04,16,15,32,13.60
2015,04,16,15,33,13.50
2015,04,16,15,34,13.40
2015,04,16,15,35,13.30
2015,04,16,15,36,13.20
2015,04,16,15,37,13.20
2015,04,16,15,38,13.10
2015,04,16,15,39,13.10
2015,04,16,15,40,13.20
2015,04,16,15,41,13.20
2015,04,16,15,42,13.20
2015,04,16,15,43,13.20
2015,04,16,15,44,13.10
2015,04,16,15,45,13.10
2015,04,16,15,46,13.10
2015,04,16,15,47,13.00
2015,04,16,15,48,12.90
2015,04,16,15,49,12.90
2015,04,16,15,50,12.80
2015,04,16,15,51,12.80
2015,04,16,15,52,12.80
2015,04,16,15,53,12.80
2015,04,16,15,54,12.80
2015,04,16,15,55,12.90
2015,04,16,15,56,12.90
2015,04,16,15,57,13.00
2015,04,16,15,58,13.00
2015,04,16,15,59,13.00
2015,04,16,16,00,13.00
2015,04,16,16,01,12.90
2015,04,16,16,02,12.90
2015,04,16,16,03,12.80
2015,04,16,16,04,12.70
2015,04,16,16,05,12.70
2015,04,16,16,06,12.70
2015,04,16,16,07,12.70
2015,04,16,16,08,12.80
2015,04,16,16,09,12.80
2015,04,16,16,10,12.80
2015,04,16,16,11,12.90
2015,04,16,16,12,13.10
2015,04,16,16,13,13.20
2015,04,16,16,14,13.30
2015,04,16,16,15,13.50
2015,04,16,16,16,13.60
2015,04,16,16,17,13.80
2015,04,16,16,18,13.90
2015,04,16,16,19,14.10
2015,04,16,16,20,14.20
2015,04,16,16,21,14.30
2015,04,16,16,22,14.40
2015,04,16,16,23,14.50
2015,04,16,16,24,14.60
2015,04,16,16,25,14.70
2015,04,16,16,26,14.70
2015,04,16,16,27,14.80
2015,04,16,16,28,14.80
2015,04,16,16,29,14.80
2015,04,16,16,30,14.90
2015,04,16,16,31,14.90
2015,04,16,16,32,14.90
2015,04,16,16,33,14.90
2015,04,16,16,34,14.90
2015,04,16,16,35,14.90
2015,04,16,16,36,15.00
2015,04,16,16,37,14.90
2015,04,16,16,38,15.00
2015,04,16,16,39,15.00
2015,04,16,16,40,15.00
2015,04,16,16,41,15.00
2015,04,16,16,42,15.00
2015,04,16,16,43,15.00
2015,04,16,16,44,15.00
2015,04,16,16,45,15.00
2015,04,16,16,46,15.00
2015,04,16,16,47,15.00
2015,04,16,16,48,15.00
2015,04,16,16,49,15.00
2015,04,16,16,50,15.00
2015,04,16,16,51,15.00
2015,04,16,16,52,15.00
2015,04,16,16,53,15.10
2015,04,16,16,54,15.10
2015,04,16,16,55,15.10
2015,04,16,16,56,15.20
2015,04,16,16,57,15.20
2015,04,16,16,58,15.20
2015,04,16,16,59,15.30
2015,04,16,17,00,15.30
2015,04,16,17,01,15.30
2015,04,16,17,02,15.20
2015,04,16,17,03,15.20
2015,04,16,17,04,15.20
2015,04,16,17,05,15.20
2015,04,16,17,06,15.20
2015,04,16,17,07,15.10
2015,04,16,17,08,15.10
2015,04,16,17,09,15.10
2015,04,16,17,10,15.00
2015,04,16,17,11,15.00
2015,04,16,17,12,15.00
2015,04,16,17,13,15.00
2015,04,16,17,14,15.00
2015,04,16,17,15,14.90
2015,04,16,17,16,14.90
2015,04,16,17,17,15.00
2015,04,16,17,18,15.00
2015,04,16,17,19,15.00
2015,04,16,17,20,15.00
2015,04,16,17,21,15.00
2015,04,16,17,22,15.00
2015,04,16,17,23,15.00
2015,04,16,17,24,15.00
2015,04,16,17,25,15.00
2015,04,16,17,26,15.00
2015,04,16,17,27,15.00
2015,04,16,17,28,15.00
2015,04,16,17,29,15.00
2015,04,16,17,30,15.00
2015,04,16,17,31,15.10
2015,04,16,17,32,15.10
2015,04,16,17,33,15.10
2015,04,16,17,34,15.10
2015,04,16,17,35,15.10
2015,04,16,17,36,15.00
2015,04,16,17,37,15.00
2015,04,16,17,38,14.90
2015,04,16,17,39,15.00
2015,04,16,17,40,14.90
2015,04,16,17,41,14.90
2015,04,16,17,42,14.90
2015,04,16,17,43,14.90
2015,04,16,17,44,14.90